Regional Weather Roundup
Issued by NWS Raleigh/Durham, NC

Home | Current Version | Previous Version | Text Only | Print | Product List | Glossary On
Versions: 1 2 3 4 5 6 7 8 9 10 11 12 13 14 15 16 17 18 19 20 21 22 23 24 25 26 27 28 29 30 31 32 33 34 35 36 37 38 39 40 41 42 43 44 45 46 47 48 49 50
000
ASUS42 KRAH 050310
RWRRAH
NORTH CAROLINA WEATHER ROUNDUP
NATIONAL WEATHER SERVICE RALEIGH NC
1100 PM EDT SAT JUL 04 2015

NOTE: "FAIR" INDICATES FEW OR NO CLOUDS BELOW 12,000 FEET WITH NO
SIGNIFICANT WEATHER AND/OR OBSTRUCTIONS TO VISIBILITY.

NCZ001-053-055-056-065-067-050400-
WESTERN NORTH CAROLINA

CITY           SKY/WX    TMP DP  RH WIND       PRES   REMARKS
ASHEVILLE      CLOUDY    70  64  81 CALM      30.13R
JEFFERSON      CLOUDY    64  63  97 CALM      30.17S
MORGANTON      MOCLDY    71  68  89 CALM      30.13R
HICKORY        PTCLDY    74  67  78 S3        30.08R
RUTHERFORDTON  NOT AVBL
MOUNT AIRY     DRIZZLE   70  67  92 CALM      30.10R
BOONE          MOCLDY    66  60  80 NW3       30.18R
$$

NCZ021-022-025-041-071-084-088-050400-
CENTRAL NORTH CAROLINA

CITY           SKY/WX    TMP DP  RH WIND       PRES   REMARKS
CHARLOTTE      MOCLDY    76  67  73 SW5       30.07R
GREENSBORO     MOCLDY    76  66  71 SW7       30.05R
WINSTON-SALEM  CLOUDY    75  67  76 CALM      30.07R
RALEIGH-DURHAM CLOUDY    77  68  73 SW10      30.04R
FORT BRAGG     MOCLDY    80  70  70 SW6       30.03S
FAYETTEVILLE   PTCLDY    80  70  71 S7        30.03S
BURLINGTON     MOCLDY    76  67  73 SW5       30.04R
LAURINBURG     PTCLDY    76  70  82 S3        30.05R HAZE
$$

NCZ011-015-027-028-043-044-047-080-103-050400-
NORTHEASTERN NORTH CAROLINA

CITY           SKY/WX    TMP DP  RH WIND       PRES   REMARKS
ROCKY MT-WILSO PTCLDY    75  71  87 S6        30.03R
GREENVILLE     PTCLDY    81  70  69 SW5       30.05R
WASHINGTON     PTCLDY    80  69  69 W3        30.04R
ELIZABETH CITY PTCLDY    76  73  91 SW6       30.02R
MANTEO         CLOUDY    78  73  83 SW7       30.03R
CAPE HATTERAS  CLOUDY    78  75  90 SW14      30.05R
$$

NCZ078-087-090-091-093-098-101-050400-
SOUTHEASTERN NORTH CAROLINA

CITY           SKY/WX    TMP DP  RH WIND       PRES   REMARKS
LUMBERTON      PTCLDY    81  70  69 SW7       30.04R
GOLDSBORO      PTCLDY    80  70  71 SW7       30.02R
KINSTON        PTCLDY    79  69  70 SW3       30.05R
KENANSVILLE    MOCLDY    77  69  75 CALM      30.05F
NEW BERN       PTCLDY    80  72  76 SW6       30.06R
CHERRY POINT   MOCLDY    81  73  76 SW13      30.06R
BEAUFORT       CLOUDY    80  77  90 SW14      30.06R
JACKSONVILLE   MOCLDY    79  71  76 SW5       30.05R
WILMINGTON     PTCLDY    80  73  79 SW10      30.06S
$$



USA.gov is the U.S. government's official web portal to all federal, state and local government web resources and services.